Home > Weather > Sunrise Manor > Past weeks

Flag for U.S.A. Weather for the Past 2 Weeks in Sunrise Manor, Nevada, U.S.A.

Now
60 °F

Sunny.


Feels Like: 60 °F
Forecast: 36 / 67 °F
Wind: No wind

Location: Nellis Air Force Base

Current Time: Feb 6, 2016 at 4:41:04 PM

Latest Report: Feb 6, 2016 at 3:58 PM


Visibility: 10 mi

Pressure: 30.32 "Hg (28.39 "Hg at 555m altitude)

Humidity: 28%

Dew point: 27 °F

Location of Sunrise ManorLocation

Historic Weather in Sunrise Manor — Graph

°F

Sunrise Manor Temperature Yesterday

Maximum temperature yesterday: 59 °F (at 2:58 PM)
Minimum temperature yesterday: 34 °F (at 5:58 AM)
Average temperature yesterday: 47 °F

High & Low Weather Summary for the Past Weeks

 TemperatureHumidityPressure
High69 °F (Jan 30, 2:58 PM)93% (Jan 31, 3:58 PM)30.54 "Hg (Jan 31, 3:58 PM)
Low30 °F (Feb 3, 4:58 AM)16% (Jan 26, 4:58 PM)29.35 "Hg (Jan 31, 8:58 PM)
Average47 °F44%30.13 "Hg
* Reported Jan 22 2:58 PM — Feb 6 2:58 PM, Sunrise Manor, Weather by CustomWeather, © 2016

Note: Actual official high and low records may vary slightly from our data, if they occured in-between our weather recording intervals... More about our weather records

Advertising

Sunrise Manor Weather History for the Previous 24 Hours

 ConditionsComfort  
Time TempWeatherWind HumidityBarometerVisibility
2:58 PM
Sat, Feb 6
59 °FSunny.No wind29%30.33 "Hg10 mi
1:58 PM59 °FSunny.3 mph29%30.35 "Hg10 mi
12:58 PM59 °FSunny.6 mph29%30.38 "Hg10 mi
11:58 AM54 °FSunny.2 mph35%30.42 "Hg10 mi
10:58 AM52 °FSunny.No wind39%30.46 "Hg10 mi
9:58 AM49 °FSunny.5 mph45%30.49 "Hg10 mi
8:58 AM45 °FSunny.No wind52%30.50 "Hg10 mi
7:58 AM40 °FSunny.1 mph60%30.49 "Hg10 mi
6:58 AM34 °FSunny.1 mph76%30.49 "Hg10 mi
5:58 AM35 °FClear.1 mph74%30.49 "Hg10 mi
4:58 AM36 °FClear.2 mph73%30.48 "Hg10 mi
3:58 AM39 °FClear.3 mph62%30.48 "Hg10 mi
2:58 AM41 °FClear.5 mph59%30.47 "Hg10 mi
1:58 AM39 °FClear.5 mph64%30.47 "Hg10 mi
12:58 AM42 °FClear.2 mph57%30.47 "Hg10 mi
11:58 PM
Fri, Feb 5
42 °FClear.2 mph57%30.47 "Hg10 mi
10:58 PM47 °FClear.2 mph45%30.47 "Hg10 mi
9:58 PM47 °FClear.2 mph46%30.46 "Hg10 mi
8:58 PM46 °FClear.5 mph53%30.48 "Hg10 mi
7:58 PM49 °FClear.5 mph46%30.47 "Hg10 mi
6:58 PM49 °FClear.7 mph44%30.45 "Hg10 mi
5:58 PM51 °FClear.6 mph41%30.45 "Hg10 mi
4:58 PM57 °FSunny.14 mph29%30.44 "Hg10 mi
Weather by CustomWeather, © 2016

See weather overviewHow to use our weather pages